RYR2675 EKCH-EGPH

Flight info

Callsign RYR2675
Flight time 1h 37m
Altitude 38000
Route ODDON DCT PETIL DCT SURAT DCT ROBEM DCT AGPED
Aircraft B738/M-SDE2E3FGHIRWXY/LB1

Departure

Time 2026-05-05 10:12
Airport Copenhagen Kastrup Airport (EKCH)

Arrival

Time 2026-05-05 11:50
Airport Edinburgh Airport (EGPH)
Time Latitude Longitude Altitude Speed Heading
2026-05-05 09:32 55.62511 12.65468 23 ft 0 kts 22°
2026-05-05 09:58 55.62507 12.65465 23 ft 2 kts 21°
2026-05-05 09:58 55.62491 12.65455 24 ft 2 kts 19°
2026-05-05 09:59 55.62475 12.65446 25 ft 2 kts 15°
2026-05-05 09:59 55.62459 12.65440 25 ft 2 kts
2026-05-05 09:59 55.62443 12.65446 24 ft 2 kts 290°
2026-05-05 09:59 55.62442 12.65456 28 ft 0 kts 269°
2026-05-05 10:05 55.62442 12.65444 25 ft 3 kts 269°
2026-05-05 10:05 55.62441 12.65389 23 ft 6 kts 269°
2026-05-05 10:05 55.62441 12.65287 23 ft 10 kts 267°
2026-05-05 10:06 55.62392 12.65203 23 ft 12 kts 183°
2026-05-05 10:06 55.62303 12.65199 23 ft 12 kts 186°
2026-05-05 10:06 55.62209 12.65176 23 ft 15 kts 208°
2026-05-05 10:06 55.62112 12.65066 23 ft 18 kts 213°
2026-05-05 10:07 55.62001 12.64937 24 ft 20 kts 213°
2026-05-05 10:07 55.61874 12.64791 24 ft 22 kts 213°
2026-05-05 10:07 55.61747 12.64645 23 ft 22 kts 212°
2026-05-05 10:07 55.61620 12.64500 23 ft 21 kts 213°
2026-05-05 10:08 55.61500 12.64362 24 ft 21 kts 213°
2026-05-05 10:08 55.61382 12.64227 24 ft 20 kts 213°
2026-05-05 10:08 55.61268 12.64096 24 ft 19 kts 213°
2026-05-05 10:08 55.61158 12.63968 23 ft 19 kts 212°
2026-05-05 10:09 55.61047 12.63841 25 ft 20 kts 213°
2026-05-05 10:09 55.60929 12.63706 25 ft 19 kts 212°
2026-05-05 10:09 55.60821 12.63594 24 ft 16 kts 189°
2026-05-05 10:09 55.60752 12.63670 23 ft 6 kts 131°
2026-05-05 10:10 55.60740 12.63694 23 ft 0 kts 131°
2026-05-05 10:11 55.60736 12.63704 24 ft 3 kts 131°
2026-05-05 10:11 55.60715 12.63747 23 ft 7 kts 129°
2026-05-05 10:11 55.60690 12.63859 24 ft 13 kts 78°
2026-05-05 10:11 55.60754 12.63987 27 ft 21 kts 41°
2026-05-05 10:12 55.61049 12.64441 22 ft 95 kts 42°
2026-05-05 10:12 55.61721 12.65481 46 ft 157 kts 41°
2026-05-05 10:12 55.62559 12.66830 707 ft 170 kts 41°
2026-05-05 10:12 55.63441 12.68283 1704 ft 172 kts 38°
2026-05-05 10:13 55.64373 12.69650 2512 ft 181 kts 37°
2026-05-05 10:13 55.65484 12.71037 2805 ft 208 kts 20°
2026-05-05 10:13 55.66964 12.71192 3120 ft 224 kts 341°
2026-05-05 10:13 55.68285 12.69611 3600 ft 237 kts 308°
2026-05-05 10:14 55.68942 12.66981 4514 ft 236 kts 279°
2026-05-05 10:14 55.68992 12.64070 5366 ft 242 kts 268°
2026-05-05 10:14 55.68867 12.61080 6278 ft 243 kts 265°
2026-05-05 10:14 55.68707 12.58083 7090 ft 249 kts 265°
2026-05-05 10:15 55.68537 12.54961 7827 ft 256 kts 264°
2026-05-05 10:15 55.68368 12.51804 8712 ft 258 kts 264°
2026-05-05 10:15 55.68202 12.48631 9623 ft 259 kts 264°
2026-05-05 10:15 55.68039 12.45430 10386 ft 266 kts 264°
2026-05-05 10:16 55.67866 12.42013 10593 ft 291 kts 264°
2026-05-05 10:16 55.67679 12.38305 10853 ft 312 kts 264°
2026-05-05 10:16 55.67485 12.34419 11485 ft 319 kts 264°
2026-05-05 10:16 55.67290 12.30492 12303 ft 321 kts 264°
2026-05-05 10:17 55.67094 12.26529 13098 ft 324 kts 264°
2026-05-05 10:17 55.66896 12.22530 13882 ft 328 kts 264°
2026-05-05 10:17 55.66694 12.18480 14563 ft 331 kts 264°
2026-05-05 10:17 55.66491 12.14404 15261 ft 334 kts 264°
2026-05-05 10:18 55.66284 12.10291 15957 ft 337 kts 264°
2026-05-05 10:18 55.66074 12.06135 16630 ft 341 kts 264°
2026-05-05 10:18 55.65860 12.01937 17304 ft 344 kts 264°
2026-05-05 10:18 55.65642 11.97699 17979 ft 348 kts 264°
2026-05-05 10:19 55.65421 11.93411 18583 ft 351 kts 264°
2026-05-05 10:19 55.65199 11.89141 19145 ft 354 kts 263°
2026-05-05 10:19 55.64970 11.84775 19724 ft 357 kts 263°
2026-05-05 10:19 55.64739 11.80389 20259 ft 358 kts 263°
2026-05-05 10:20 55.64505 11.75981 20698 ft 362 kts 263°
2026-05-05 10:20 55.64267 11.71515 21120 ft 366 kts 263°
2026-05-05 10:20 55.64024 11.67013 21578 ft 368 kts 263°
2026-05-05 10:20 55.63779 11.62493 22032 ft 371 kts 263°
2026-05-05 10:21 55.63530 11.57926 22464 ft 373 kts 263°
2026-05-05 10:21 55.63307 11.53856 22843 ft 376 kts 263°
2026-05-05 10:21 55.63038 11.49006 23283 ft 379 kts 263°
2026-05-05 10:21 55.62779 11.44345 23652 ft 382 kts 263°
2026-05-05 10:22 55.62516 11.39650 23990 ft 385 kts 263°
2026-05-05 10:22 55.62253 11.34992 24339 ft 387 kts 263°
2026-05-05 10:22 55.61983 11.30242 24679 ft 389 kts 263°
2026-05-05 10:22 55.61710 11.25460 25010 ft 391 kts 263°
2026-05-05 10:23 55.61433 11.20658 25343 ft 393 kts 263°
2026-05-05 10:23 55.61152 11.15824 25669 ft 395 kts 263°
2026-05-05 10:23 55.60868 11.10953 25995 ft 397 kts 263°
2026-05-05 10:23 55.60581 11.06075 26314 ft 399 kts 263°
2026-05-05 10:24 55.60294 11.01245 26618 ft 401 kts 263°
2026-05-05 10:24 55.60001 10.96331 26914 ft 403 kts 263°
2026-05-05 10:24 55.59703 10.91374 27206 ft 405 kts 263°
2026-05-05 10:24 55.59402 10.86407 27497 ft 407 kts 263°
2026-05-05 10:25 55.59099 10.81413 27777 ft 409 kts 263°
2026-05-05 10:25 55.58792 10.76404 28055 ft 411 kts 263°
2026-05-05 10:25 55.58482 10.71368 28321 ft 413 kts 263°
2026-05-05 10:25 55.58240 10.66297 28589 ft 415 kts 268°
2026-05-05 10:26 55.58376 10.61183 28828 ft 419 kts 276°
2026-05-05 10:26 55.58810 10.56085 29101 ft 420 kts 277°
2026-05-05 10:26 55.59270 10.50976 29352 ft 422 kts 277°
2026-05-05 10:26 55.59734 10.45846 29606 ft 423 kts 277°
2026-05-05 10:27 55.60193 10.40698 29864 ft 424 kts 277°
2026-05-05 10:27 55.60645 10.35536 30117 ft 425 kts 277°
2026-05-05 10:27 55.61090 10.30362 30407 ft 424 kts 277°
2026-05-05 10:27 55.61525 10.25216 30740 ft 422 kts 277°
2026-05-05 10:28 55.61956 10.20075 31055 ft 421 kts 277°
2026-05-05 10:28 55.62382 10.14954 31329 ft 420 kts 277°
2026-05-05 10:28 55.62804 10.09835 31611 ft 420 kts 277°
2026-05-05 10:28 55.63218 10.04796 31913 ft 419 kts 277°
2026-05-05 10:29 55.63633 9.99708 32217 ft 417 kts 277°
2026-05-05 10:29 55.64046 9.94629 32501 ft 417 kts 277°
2026-05-05 10:29 55.64456 9.89548 32779 ft 416 kts 277°
2026-05-05 10:29 55.64864 9.84471 33063 ft 416 kts 277°
2026-05-05 10:30 55.65270 9.79400 33352 ft 415 kts 277°
2026-05-05 10:30 55.65671 9.74354 33635 ft 414 kts 277°
2026-05-05 10:30 55.66070 9.69311 33919 ft 413 kts 277°
2026-05-05 10:30 55.66467 9.64260 34165 ft 413 kts 276°
2026-05-05 10:31 55.66859 9.59244 34379 ft 412 kts 276°
2026-05-05 10:31 55.67252 9.54205 34600 ft 412 kts 276°
2026-05-05 10:31 55.67641 9.49171 34812 ft 412 kts 276°
2026-05-05 10:31 55.68029 9.44134 35025 ft 412 kts 276°
2026-05-05 10:32 55.68413 9.39105 35233 ft 412 kts 276°
2026-05-05 10:32 55.68796 9.34075 35451 ft 412 kts 276°
2026-05-05 10:32 55.69177 9.29051 35655 ft 412 kts 276°
2026-05-05 10:32 55.69556 9.24019 35845 ft 412 kts 276°
2026-05-05 10:33 55.69931 9.18996 36043 ft 411 kts 276°
2026-05-05 10:33 55.70302 9.14023 36254 ft 411 kts 276°
2026-05-05 10:33 55.70673 9.09001 36437 ft 411 kts 276°
2026-05-05 10:33 55.71044 9.03959 36620 ft 411 kts 276°
2026-05-05 10:34 55.71413 8.98924 36799 ft 411 kts 276°
2026-05-05 10:34 55.71779 8.93889 36993 ft 411 kts 276°
2026-05-05 10:34 55.72142 8.88861 37153 ft 411 kts 276°
2026-05-05 10:34 55.72504 8.83830 37319 ft 411 kts 276°
2026-05-05 10:35 55.72864 8.78793 37497 ft 411 kts 276°
2026-05-05 10:35 55.73217 8.73826 37662 ft 411 kts 276°
2026-05-05 10:35 55.73570 8.68827 37820 ft 411 kts 275°
2026-05-05 10:35 55.73925 8.63763 37939 ft 412 kts 275°
2026-05-05 10:36 55.74630 8.53625 37977 ft 414 kts 275°
2026-05-05 10:36 55.75210 8.45195 37978 ft 414 kts 275°
2026-05-05 10:37 55.75900 8.35054 37980 ft 413 kts 275°
2026-05-05 10:37 55.76580 8.24936 37987 ft 412 kts 275°
2026-05-05 10:38 55.77252 8.14815 37995 ft 412 kts 275°
2026-05-05 10:38 55.77913 8.04716 37997 ft 411 kts 275°
2026-05-05 10:39 55.78565 7.94620 38006 ft 412 kts 275°
2026-05-05 10:39 55.79209 7.84528 38008 ft 414 kts 275°
2026-05-05 10:40 55.79850 7.74350 38000 ft 413 kts 275°
2026-05-05 10:40 55.80479 7.64214 38004 ft 412 kts 275°
2026-05-05 10:41 55.81099 7.54104 38003 ft 411 kts 275°
2026-05-05 10:41 55.81709 7.44008 38008 ft 411 kts 275°
2026-05-05 10:42 55.82615 7.28736 38011 ft 416 kts 275°
2026-05-05 10:43 55.83210 7.18554 37997 ft 414 kts 275°
2026-05-05 10:43 55.83794 7.08399 38008 ft 412 kts 275°
2026-05-05 10:44 55.84368 6.98253 38012 ft 412 kts 274°
2026-05-05 10:44 55.84936 6.88076 38014 ft 413 kts 274°
2026-05-05 10:45 55.85497 6.77871 38015 ft 414 kts 274°
2026-05-05 10:45 55.86045 6.67749 38006 ft 413 kts 274°
2026-05-05 10:46 55.86586 6.57601 38009 ft 412 kts 274°
2026-05-05 10:46 55.87119 6.47427 38016 ft 413 kts 274°
2026-05-05 10:47 55.87645 6.37239 38012 ft 413 kts 274°
2026-05-05 10:47 55.88160 6.27084 38011 ft 411 kts 274°
2026-05-05 10:48 55.88666 6.16960 38007 ft 409 kts 274°
2026-05-05 10:48 55.89161 6.06872 38009 ft 408 kts 274°
2026-05-05 10:49 55.89647 5.96794 38008 ft 408 kts 274°
2026-05-05 10:49 55.90121 5.86796 38008 ft 408 kts 274°
2026-05-05 10:50 55.90591 5.76711 38008 ft 408 kts 274°
2026-05-05 10:50 55.91054 5.66609 38014 ft 409 kts 274°
2026-05-05 10:51 55.91509 5.56466 38006 ft 411 kts 274°
2026-05-05 10:51 55.91958 5.46287 38005 ft 412 kts 274°
2026-05-05 10:52 55.92399 5.36088 38008 ft 413 kts 274°
2026-05-05 10:52 55.92831 5.25902 38009 ft 414 kts 274°
2026-05-05 10:53 55.93256 5.15662 37995 ft 413 kts 274°
2026-05-05 10:53 55.93673 5.05452 38004 ft 411 kts 273°
2026-05-05 10:54 55.93934 4.95271 38006 ft 410 kts 269°
2026-05-05 10:54 55.93816 4.85166 37995 ft 409 kts 268°
2026-05-05 10:55 55.93655 4.75036 38005 ft 409 kts 268°
2026-05-05 10:55 55.93512 4.64886 38012 ft 409 kts 268°
2026-05-05 10:56 55.93377 4.54710 38009 ft 410 kts 268°
2026-05-05 10:56 55.93239 4.44572 38009 ft 411 kts 268°
2026-05-05 10:57 55.93092 4.34343 38007 ft 413 kts 268°
2026-05-05 10:57 55.92935 4.24088 38006 ft 414 kts 268°
2026-05-05 10:58 55.92769 4.13810 37999 ft 415 kts 268°
2026-05-05 10:58 55.92595 4.03519 38001 ft 416 kts 268°
2026-05-05 10:59 55.92411 3.93203 37997 ft 416 kts 268°
2026-05-05 10:59 55.92218 3.82868 37992 ft 416 kts 268°
2026-05-05 11:00 55.92017 3.72616 37978 ft 416 kts 268°
2026-05-05 11:00 55.91807 3.62306 37976 ft 415 kts 268°
2026-05-05 11:01 55.91591 3.52018 37976 ft 414 kts 268°
2026-05-05 11:01 55.90986 3.41817 37981 ft 413 kts 262°
2026-05-05 11:02 55.90114 3.31781 37980 ft 411 kts 262°
2026-05-05 11:02 55.89229 3.21699 37984 ft 411 kts 262°
2026-05-05 11:03 55.88359 3.11595 37996 ft 413 kts 262°
2026-05-05 11:03 55.87492 3.01463 38006 ft 414 kts 262°
2026-05-05 11:04 55.86622 2.91349 37988 ft 415 kts 262°
2026-05-05 11:04 55.85739 2.81182 37986 ft 416 kts 262°
2026-05-05 11:05 55.84845 2.71004 37991 ft 416 kts 262°
2026-05-05 11:05 55.83942 2.60812 37993 ft 416 kts 261°
2026-05-05 11:06 55.83032 2.50646 37994 ft 416 kts 261°
2026-05-05 11:06 55.82113 2.40481 37982 ft 416 kts 261°
2026-05-05 11:07 55.81185 2.30318 37979 ft 414 kts 261°
2026-05-05 11:07 55.80256 2.20227 37985 ft 413 kts 261°
2026-05-05 11:08 55.79322 2.10186 37979 ft 411 kts 261°
2026-05-05 11:08 55.78388 2.00225 37983 ft 412 kts 261°
2026-05-05 11:09 55.77430 1.90106 37987 ft 418 kts 261°
2026-05-05 11:09 55.76453 1.79884 37989 ft 421 kts 261°
2026-05-05 11:10 55.75466 1.69653 37967 ft 418 kts 261°
2026-05-05 11:10 55.74482 1.59547 37974 ft 414 kts 261°
2026-05-05 11:11 55.73491 1.49459 37992 ft 416 kts 261°
2026-05-05 11:11 55.72492 1.39365 37993 ft 418 kts 261°
2026-05-05 11:12 55.71478 1.29222 37984 ft 417 kts 261°
2026-05-05 11:12 55.70457 1.19091 37986 ft 417 kts 260°
2026-05-05 11:13 55.69429 1.08984 37991 ft 417 kts 260°
2026-05-05 11:13 55.68391 0.98866 37993 ft 417 kts 260°
2026-05-05 11:14 55.67345 0.88749 37996 ft 417 kts 260°
2026-05-05 11:14 55.66289 0.78626 37995 ft 417 kts 260°
2026-05-05 11:15 55.65226 0.68526 38001 ft 417 kts 260°
2026-05-05 11:15 55.64161 0.58488 38003 ft 417 kts 260°
2026-05-05 11:16 55.63081 0.48387 38004 ft 418 kts 260°
2026-05-05 11:16 55.61991 0.38278 38006 ft 418 kts 260°
2026-05-05 11:17 55.60893 0.28177 38007 ft 418 kts 260°
2026-05-05 11:17 55.59784 0.18066 38010 ft 418 kts 260°
2026-05-05 11:18 55.58669 0.07970 38012 ft 418 kts 259°
2026-05-05 11:18 55.57545 -0.02121 38018 ft 418 kts 259°
2026-05-05 11:19 55.56420 -0.12145 38017 ft 418 kts 259°
2026-05-05 11:19 55.55282 -0.22200 38020 ft 417 kts 259°
2026-05-05 11:20 55.54135 -0.32261 38021 ft 417 kts 259°
2026-05-05 11:20 55.52980 -0.42310 38028 ft 417 kts 259°
2026-05-05 11:21 55.51824 -0.52293 38028 ft 417 kts 259°
2026-05-05 11:21 55.50650 -0.62346 38030 ft 418 kts 259°
2026-05-05 11:21 55.50059 -0.67386 37831 ft 422 kts 259°
2026-05-05 11:22 55.49459 -0.72480 37530 ft 424 kts 259°
2026-05-05 11:22 55.48855 -0.77582 37094 ft 423 kts 259°
2026-05-05 11:22 55.48254 -0.82637 36712 ft 419 kts 259°
2026-05-05 11:22 55.47657 -0.87650 36327 ft 416 kts 259°
2026-05-05 11:23 55.47063 -0.92624 35923 ft 415 kts 258°
2026-05-05 11:23 55.46669 -0.95912 35656 ft 414 kts 258°
2026-05-05 11:23 55.45908 -1.00808 35235 ft 414 kts 251°
2026-05-05 11:23 55.44294 -1.06888 34740 ft 415 kts 240°
2026-05-05 11:24 55.42752 -1.11213 34359 ft 418 kts 239°
2026-05-05 11:24 55.41710 -1.14077 34089 ft 420 kts 239°
2026-05-05 11:24 55.40125 -1.18412 33610 ft 420 kts 239°
2026-05-05 11:24 55.38549 -1.22730 33162 ft 420 kts 239°
2026-05-05 11:25 55.36977 -1.27058 32742 ft 420 kts 239°
2026-05-05 11:25 55.35404 -1.31398 32332 ft 423 kts 239°
2026-05-05 11:25 55.33821 -1.35777 31903 ft 425 kts 239°
2026-05-05 11:25 55.32231 -1.40172 31482 ft 426 kts 239°
2026-05-05 11:26 55.30644 -1.44553 31068 ft 427 kts 239°
2026-05-05 11:26 55.29042 -1.48967 30645 ft 427 kts 239°
2026-05-05 11:26 55.27445 -1.53360 30230 ft 428 kts 239°
2026-05-05 11:26 55.25862 -1.57707 29765 ft 427 kts 239°
2026-05-05 11:27 55.24270 -1.62069 29317 ft 423 kts 239°
2026-05-05 11:27 55.22681 -1.66415 28845 ft 424 kts 239°
2026-05-05 11:27 55.21085 -1.70776 28410 ft 427 kts 239°
2026-05-05 11:27 55.19475 -1.75167 27960 ft 428 kts 239°
2026-05-05 11:28 55.17883 -1.79500 27498 ft 426 kts 239°
2026-05-05 11:28 55.16268 -1.83888 27055 ft 422 kts 239°
2026-05-05 11:28 55.14734 -1.88276 26598 ft 424 kts 246°
2026-05-05 11:28 55.13879 -1.93195 26179 ft 424 kts 262°
2026-05-05 11:29 55.13803 -1.98359 25707 ft 427 kts 275°
2026-05-05 11:29 55.14445 -2.03396 25211 ft 424 kts 290°
2026-05-05 11:29 55.15632 -2.08004 24769 ft 419 kts 294°
2026-05-05 11:29 55.16911 -2.12561 24303 ft 415 kts 295°
2026-05-05 11:30 55.18202 -2.17085 23883 ft 415 kts 295°
2026-05-05 11:30 55.19487 -2.21616 23436 ft 414 kts 295°
2026-05-05 11:30 55.20753 -2.26134 22931 ft 410 kts 294°
2026-05-05 11:30 55.21998 -2.30624 22427 ft 407 kts 294°
2026-05-05 11:31 55.23218 -2.35070 21955 ft 404 kts 294°
2026-05-05 11:31 55.24423 -2.39486 21488 ft 401 kts 294°
2026-05-05 11:31 55.25605 -2.43837 21018 ft 398 kts 294°
2026-05-05 11:31 55.26787 -2.48199 20558 ft 393 kts 294°
2026-05-05 11:32 55.27944 -2.52477 20110 ft 387 kts 294°
2026-05-05 11:32 55.29096 -2.56743 19652 ft 381 kts 294°
2026-05-05 11:32 55.30220 -2.60911 19244 ft 374 kts 294°
2026-05-05 11:32 55.31323 -2.65011 18826 ft 369 kts 294°
2026-05-05 11:33 55.32411 -2.69066 18423 ft 366 kts 294°
2026-05-05 11:33 55.33493 -2.73102 17987 ft 362 kts 294°
2026-05-05 11:33 55.34557 -2.77077 17521 ft 357 kts 294°
2026-05-05 11:33 55.35609 -2.81015 17054 ft 353 kts 294°
2026-05-05 11:34 55.36644 -2.84897 16613 ft 349 kts 294°
2026-05-05 11:34 55.37656 -2.88700 16186 ft 346 kts 294°
2026-05-05 11:34 55.38670 -2.92514 15752 ft 342 kts 294°
2026-05-05 11:34 55.39674 -2.96301 15321 ft 339 kts 294°
2026-05-05 11:35 55.40664 -3.00038 14898 ft 336 kts 294°
2026-05-05 11:35 55.41647 -3.03754 14481 ft 333 kts 294°
2026-05-05 11:35 55.42618 -3.07434 14076 ft 328 kts 295°
2026-05-05 11:35 55.43569 -3.11042 13637 ft 321 kts 295°
2026-05-05 11:36 55.44493 -3.14555 13166 ft 315 kts 295°
2026-05-05 11:36 55.45405 -3.18028 12720 ft 306 kts 294°
2026-05-05 11:36 55.46288 -3.21394 12289 ft 298 kts 294°
2026-05-05 11:36 55.47144 -3.24657 11896 ft 289 kts 295°
2026-05-05 11:37 55.47977 -3.27841 11535 ft 282 kts 295°
2026-05-05 11:37 55.48798 -3.30983 11180 ft 282 kts 295°
2026-05-05 11:37 55.49618 -3.34116 10841 ft 281 kts 296°
2026-05-05 11:37 55.50781 -3.36865 10494 ft 282 kts 317°
2026-05-05 11:38 55.52266 -3.39045 10181 ft 282 kts 320°
2026-05-05 11:38 55.53779 -3.41219 9815 ft 278 kts 320°
2026-05-05 11:38 55.55251 -3.43359 9423 ft 270 kts 320°
2026-05-05 11:38 55.56670 -3.45449 9081 ft 263 kts 319°
2026-05-05 11:39 55.58055 -3.47512 8726 ft 256 kts 319°
2026-05-05 11:39 55.59402 -3.49531 8378 ft 251 kts 319°
2026-05-05 11:39 55.60717 -3.51510 8045 ft 246 kts 320°
2026-05-05 11:39 55.62006 -3.53455 7704 ft 242 kts 320°
2026-05-05 11:40 55.63279 -3.55377 7369 ft 239 kts 320°
2026-05-05 11:40 55.64535 -3.57246 7035 ft 236 kts 322°
2026-05-05 11:40 55.65801 -3.59071 6678 ft 233 kts 322°
2026-05-05 11:40 55.67055 -3.60872 6341 ft 230 kts 323°
2026-05-05 11:41 55.68283 -3.62640 6030 ft 226 kts 323°
2026-05-05 11:41 55.69492 -3.64414 5767 ft 224 kts 321°
2026-05-05 11:41 55.70650 -3.66239 5528 ft 221 kts 320°
2026-05-05 11:41 55.71784 -3.68044 5285 ft 216 kts 320°
2026-05-05 11:42 55.72875 -3.69777 5056 ft 212 kts 320°
2026-05-05 11:42 55.73964 -3.71505 4866 ft 208 kts 320°
2026-05-05 11:42 55.75037 -3.73202 4578 ft 204 kts 321°
2026-05-05 11:42 55.76149 -3.74708 4333 ft 198 kts 330°
2026-05-05 11:43 55.77280 -3.76099 4104 ft 197 kts 324°
2026-05-05 11:43 55.78330 -3.77665 4012 ft 196 kts 324°
2026-05-05 11:43 55.79561 -3.78580 3981 ft 193 kts
2026-05-05 11:43 55.80778 -3.77793 3977 ft 190 kts 45°
2026-05-05 11:44 55.81607 -3.75978 3984 ft 188 kts 50°
2026-05-05 11:44 55.82416 -3.74198 3977 ft 181 kts 52°
2026-05-05 11:44 55.83118 -3.72433 3963 ft 175 kts 56°
2026-05-05 11:44 55.83763 -3.70632 3974 ft 170 kts 58°
2026-05-05 11:45 55.84396 -3.68789 3994 ft 179 kts 58°
2026-05-05 11:45 55.85052 -3.66845 3865 ft 187 kts 59°
2026-05-05 11:45 55.85719 -3.64855 3615 ft 185 kts 59°
2026-05-05 11:45 55.86365 -3.62929 3349 ft 177 kts 59°
2026-05-05 11:46 55.86978 -3.61099 3117 ft 167 kts 58°
2026-05-05 11:46 55.87558 -3.59364 2890 ft 159 kts 58°
2026-05-05 11:46 55.88107 -3.57730 2685 ft 151 kts 58°
2026-05-05 11:46 55.88649 -3.56119 2490 ft 154 kts 59°
2026-05-05 11:47 55.89202 -3.54471 2302 ft 153 kts 58°
2026-05-05 11:47 55.89746 -3.52850 2068 ft 147 kts 58°
2026-05-05 11:47 55.90260 -3.51320 1865 ft 142 kts 59°
2026-05-05 11:47 55.90764 -3.49819 1653 ft 139 kts 57°
2026-05-05 11:48 55.91740 -3.46891 1286 ft 137 kts 59°
2026-05-05 11:48 55.92225 -3.45439 1072 ft 136 kts 59°
2026-05-05 11:48 55.92710 -3.44001 861 ft 134 kts 59°
2026-05-05 11:49 55.93178 -3.42635 685 ft 128 kts 60°
2026-05-05 11:49 55.93639 -3.41275 487 ft 129 kts 61°
2026-05-05 11:49 55.94109 -3.39906 297 ft 129 kts 62°
2026-05-05 11:49 55.94565 -3.38543 128 ft 126 kts 62°
2026-05-05 11:50 55.94969 -3.37343 111 ft 88 kts 59°
2026-05-05 11:50 55.95180 -3.36719 112 ft 32 kts 58°
2026-05-05 11:50 55.95252 -3.36436 110 ft 18 kts 114°
2026-05-05 11:50 55.95187 -3.36346 111 ft 7 kts 149°
2026-05-05 11:51 55.95182 -3.36341 110 ft 0 kts 149°
2026-05-05 11:51 55.95180 -3.36339 110 ft 2 kts 149°
2026-05-05 11:51 55.95152 -3.36317 111 ft 7 kts 169°
2026-05-05 11:52 55.95097 -3.36383 111 ft 12 kts 217°
2026-05-05 11:52 55.95011 -3.36423 111 ft 13 kts 227°
2026-05-05 11:52 55.94973 -3.36524 110 ft 7 kts 234°
2026-05-05 11:52 55.94944 -3.36533 111 ft 4 kts 163°
2026-05-05 11:53 55.94923 -3.36517 111 ft 2 kts 149°
2026-05-05 11:53 55.94913 -3.36505 111 ft 2 kts 148°
2026-05-05 11:53 55.94906 -3.36497 110 ft 0 kts 148°